TimeCST,TemperatureF,Dew PointF,Humidity,Sea Level PressureIn,VisibilityMPH,Wind Direction,Wind SpeedMPH,Gust SpeedMPH,PrecipitationIn,Events,Conditions,WindDirDegrees,DateUTC
1:56 AM,26.1,19.9,78,30.23,10.0,SE,15.0,-,N/A,,Clear,130,2013-03-07 07:56:00
2:56 AM,25.0,19.9,81,30.20,10.0,SE,13.8,-,N/A,,Clear,130,2013-03-07 08:56:00
3:56 AM,25.0,19.0,78,30.18,10.0,SE,15.0,21.9,N/A,,Clear,130,2013-03-07 09:56:00
4:56 AM,24.1,19.0,81,30.19,10.0,SE,13.8,-,N/A,,Clear,130,2013-03-07 10:56:00
5:56 AM,24.1,19.0,81,30.19,10.0,SE,13.8,-,N/A,,Clear,130,2013-03-07 11:56:00
6:56 AM,23.0,19.0,85,30.22,10.0,ESE,12.7,-,N/A,,Clear,120,2013-03-07 12:56:00
7:56 AM,25.0,19.0,78,30.21,10.0,SE,15.0,-,N/A,,Clear,130,2013-03-07 13:56:00
8:56 AM,28.0,19.9,72,30.19,10.0,SE,18.4,24.2,N/A,,Clear,130,2013-03-07 14:56:00
9:56 AM,33.1,21.9,64,30.18,10.0,SE,17.3,-,N/A,,Clear,140,2013-03-07 15:56:00
10:56 AM,35.1,21.9,59,30.16,10.0,SSE,17.3,-,N/A,,Clear,150,2013-03-07 16:56:00
11:56 AM,39.9,21.9,49,30.13,10.0,SSE,15.0,25.3,N/A,,Clear,150,2013-03-07 17:56:00
12:56 PM,45.0,23.0,42,30.12,10.0,South,17.3,21.9,N/A,,Clear,170,2013-03-07 18:56:00
1:56 PM,48.0,23.0,37,30.08,10.0,South,17.3,25.3,N/A,,Clear,170,2013-03-07 19:56:00
2:56 PM,51.1,24.1,35,30.07,10.0,South,16.1,23.0,N/A,,Clear,170,2013-03-07 20:56:00
3:56 PM,52.0,24.1,34,30.07,10.0,SSE,15.0,20.7,N/A,,Clear,150,2013-03-07 21:56:00
4:56 PM,52.0,25.0,35,30.07,10.0,SE,12.7,-,N/A,,Clear,130,2013-03-07 22:56:00
5:56 PM,48.9,25.0,39,30.09,10.0,SE,9.2,-,N/A,,Clear,140,2013-03-07 23:56:00
6:56 PM,42.1,26.1,53,30.11,10.0,SE,8.1,-,N/A,,Clear,130,2013-03-08 00:56:00
7:56 PM,39.9,27.0,60,30.13,10.0,SE,10.4,-,N/A,,Clear,140,2013-03-08 01:56:00
8:56 PM,37.9,27.0,65,30.14,10.0,SE,9.2,-,N/A,,Clear,130,2013-03-08 02:56:00
9:56 PM,36.0,27.0,70,30.15,10.0,SE,9.2,-,N/A,,Clear,130,2013-03-08 03:56:00
10:56 PM,35.1,27.0,72,30.16,10.0,SE,11.5,-,N/A,,Clear,140,2013-03-08 04:56:00
11:56 PM,34.0,26.1,73,30.17,10.0,SE,11.5,-,N/A,,Clear,140,2013-03-08 05:56:00